Date,TemperatureHighF,TemperatureAvgF,TemperatureLowF,DewpointHighF,DewpointAvgF,DewpointLowF,HumidityHigh,HumidityAvg,HumidityLow,PressureMaxIn,PressureMinIn,WindSpeedMaxMPH,WindSpeedAvgMPH,GustSpeedMaxMPH,PrecipitationSumIn
2014-1-1,66.6,47.4,34.0,50.3,36.8,25.9,87,68,45,30.26,29.91,13,6,24,0.00
2014-1-2,41.5,31.6,23.8,25.9,19.0,16.0,75,61,39,30.52,30.22,12,5,20,0.00
2014-1-3,50.1,37.0,23.8,27.8,24.0,19.4,87,61,36,30.52,30.09,8,3,17,0.00
2014-1-4,67.7,51.2,36.2,51.5,42.7,25.8,93,74,54,30.09,29.77,13,5,25,0.00
2014-1-5,58.7,33.4,19.9,53.5,21.8,5.8,83,63,46,30.59,29.77,13,8,24,0.00
2014-1-6,30.6,21.2,13.4,9.6,4.8,0.2,63,50,33,30.82,30.59,9,4,21,0.00
2014-1-7,45.9,32.1,19.5,17.9,12.6,8.9,71,47,25,30.65,30.34,8,3,16,0.00
2014-1-8,45.3,41.2,36.7,44.5,36.2,17.9,97,84,44,30.34,30.16,7,4,16,0.08
2014-1-9,45.4,41.6,37.9,44.6,40.9,37.1,98,97,95,30.26,30.03,4,1,8,0.11
2014-1-10,67.2,57.7,45.1,62.5,54.6,40.2,99,90,61,30.03,29.68,7,2,12,0.11
2014-1-11,66.7,51.7,41.4,40.4,33.2,27.3,88,54,23,30.14,29.84,7,2,16,0.00
2014-1-12,70.0,56.1,42.4,55.5,39.2,30.3,81,55,27,30.08,29.82,15,6,29,0.00
2014-1-13,63.0,55.9,41.8,58.3,34.3,20.1,89,48,24,30.10,29.80,12,5,21,0.00
2014-1-14,64.5,48.5,35.6,35.9,27.0,20.9,69,45,21,30.37,30.03,13,4,20,0.00
2014-1-15,54.9,43.8,36.2,28.9,23.3,19.4,58,45,30,30.43,30.13,6,2,16,0.00
2014-1-16,64.3,49.3,34.8,34.7,26.9,11.9,79,46,21,30.22,30.05,8,2,15,0.00
2014-1-17,53.2,46.4,38.7,20.3,14.3,10.2,46,28,19,30.41,30.21,9,4,18,0.00
2014-1-18,67.5,50.9,34.1,31.0,25.2,17.0,64,39,24,30.23,30.06,10,3,21,0.00
2014-1-19,64.4,49.7,36.9,30.5,26.8,22.0,63,43,20,30.34,30.09,5,1,11,0.00
2014-1-20,72.0,55.2,41.7,40.9,33.5,24.8,70,46,27,30.24,29.87,11,3,18,0.00
2014-1-21,53.1,42.2,34.1,26.0,17.5,9.2,64,38,23,30.47,30.22,12,4,23,0.00
2014-1-22,57.0,43.1,30.8,30.1,24.3,16.6,68,49,33,30.22,30.08,6,2,12,0.00
2014-1-23,43.6,32.3,22.7,23.5,11.0,-0.8,55,41,31,30.82,30.22,13,8,24,0.00
2014-1-24,41.1,28.1,16.9,15.6,4.8,0.0,55,38,21,30.82,30.30,7,3,20,0.00
2014-1-25,65.4,45.0,25.6,32.7,25.0,15.4,75,49,28,30.30,30.02,3,1,10,0.00
2014-1-26,73.0,54.9,44.3,39.9,36.4,31.7,68,52,26,30.02,29.67,7,2,14,0.00
2014-1-27,48.1,35.3,23.6,37.7,9.1,-3.2,71,35,21,30.40,29.79,15,9,36,0.00
2014-1-28,34.3,26.3,20.3,14.8,6.4,-0.3,60,42,35,30.57,30.39,9,4,18,0.00
2014-1-29,45.6,30.8,15.3,15.4,11.7,8.2,82,49,22,30.53,30.24,6,2,11,0.00
2014-1-30,56.8,41.2,29.2,46.0,28.8,13.9,87,62,48,30.24,29.87,15,6,27,0.00
2014-1-31,73.8,62.4,50.0,59.2,53.3,46.2,89,74,47,29.92,29.77,10,6,21,0.00
2014-2-1,64.7,52.3,39.3,60.2,44.8,30.1,89,76,68,30.05,29.76,11,6,18,0.00
2014-2-2,39.1,32.4,29.0,31.1,28.7,25.3,93,86,70,30.31,30.04,12,6,21,0.12
2014-2-3,40.5,33.8,28.2,35.3,29.6,23.7,91,85,79,30.35,30.08,5,2,18,0.00
2014-2-4,45.2,40.3,37.3,41.4,37.3,32.8,96,89,79,30.16,29.92,11,2,17,0.20
2014-2-5,37.7,28.5,21.9,33.1,19.8,13.0,85,70,61,30.58,30.15,11,8,20,0.00
2014-2-6,24.1,20.0,15.2,18.2,14.0,8.3,87,77,68,30.66,30.48,9,4,20,0.00
2014-2-7,31.2,27.1,22.0,29.0,22.4,16.3,94,82,76,30.49,30.29,3,1,6,0.00
2014-2-8,48.1,37.9,30.4,41.2,35.2,28.9,96,90,76,30.29,30.06,5,2,13,0.01
2014-2-9,46.1,41.0,36.3,42.6,39.5,35.0,98,94,87,30.18,30.07,8,2,13,0.01
2014-2-10,36.3,32.1,29.4,35.3,30.8,27.9,96,95,94,30.33,30.17,8,5,16,0.00
2014-2-11,34.7,30.8,27.5,28.7,26.1,23.1,94,83,73,30.40,30.27,8,4,16,0.00
2014-2-12,49.9,38.8,29.8,31.4,27.8,24.7,83,66,43,30.29,30.09,6,2,10,0.01
2014-2-13,64.8,43.2,28.4,40.5,34.1,26.3,94,73,38,30.10,29.91,8,1,14,0.00
2014-2-14,70.3,54.2,41.7,43.1,34.7,23.4,90,54,18,30.12,29.76,12,4,20,0.00
2014-2-15,67.8,50.5,34.7,35.7,31.3,26.6,78,51,26,30.19,30.02,7,2,20,0.00
2014-2-16,72.8,58.5,45.8,57.8,48.8,35.1,89,71,55,30.09,29.90,8,3,13,0.00
2014-2-17,73.1,64.5,49.6,60.4,40.9,24.9,90,50,17,30.16,29.88,12,5,20,0.00
2014-2-18,79.1,62.1,45.3,60.0,45.9,27.9,84,56,37,30.13,29.85,9,3,19,0.00
2014-2-19,70.5,64.9,59.6,62.1,60.5,57.8,96,86,74,29.93,29.65,10,4,16,0.00
2014-2-20,72.2,63.0,44.2,62.5,46.6,30.7,84,59,28,30.13,29.64,13,7,23,0.00
2014-2-21,66.0,51.2,33.7,32.9,26.6,17.0,74,42,19,30.21,30.03,7,2,20,0.00
2014-2-22,74.3,60.0,47.8,51.6,41.4,31.1,75,51,37,30.06,29.83,10,4,17,0.00
2014-2-23,72.7,58.4,46.8,59.6,49.0,38.3,97,73,46,30.15,29.88,12,5,18,0.00
2014-2-24,56.8,49.6,43.0,45.7,41.3,37.7,83,73,63,30.21,30.07,4,2,16,0.00
2014-2-25,51.7,48.0,40.6,45.1,40.4,29.1,88,75,52,30.19,30.05,10,4,19,0.16
2014-2-26,41.4,36.1,30.1,33.2,19.4,13.9,74,51,38,30.37,30.18,14,7,24,0.00
2014-2-27,53.6,40.3,24.1,32.3,24.2,17.6,81,55,34,30.22,29.90,6,2,11,0.00
2014-2-28,76.0,55.9,41.9,51.6,43.1,30.9,86,64,35,29.92,29.70,11,5,22,0.00
2014-3-1,79.8,64.7,50.6,64.1,57.7,49.2,97,80,50,30.00,29.86,10,3,17,0.00
2014-3-2,70.4,31.3,18.7,64.6,27.5,12.9,93,86,67,30.39,29.93,14,8,24,0.00
2014-3-3,28.1,19.5,15.2,17.9,12.2,8.9,78,73,63,30.54,30.39,12,8,23,0.00
2014-3-4,47.0,34.2,24.0,33.4,25.7,17.1,86,72,54,30.40,30.08,4,2,8,0.00
2014-3-5,53.6,42.6,32.3,35.0,31.9,28.5,91,68,46,30.22,30.02,6,2,9,0.00
2014-3-6,54.7,44.7,38.7,39.0,36.8,32.9,92,75,54,30.29,30.09,8,4,16,0.01
2014-3-7,65.2,49.5,36.1,44.6,39.4,34.3,94,71,41,30.09,29.87,10,4,18,0.00
2014-3-8,54.5,47.4,37.9,50.9,42.5,33.6,89,83,71,30.34,29.91,11,5,20,0.00
2014-3-9,61.7,47.4,36.8,44.5,38.9,33.3,87,74,52,30.39,30.22,7,3,18,0.00
2014-3-10,77.0,58.8,40.9,55.9,45.5,39.8,96,67,30,30.22,29.88,7,3,17,0.00
2014-3-11,77.4,65.3,55.5,58.1,55.0,38.3,93,71,42,29.88,29.53,14,5,29,0.00
2014-3-12,60.5,54.0,45.3,38.1,26.0,19.3,59,36,21,30.31,29.82,15,8,27,0.00
2014-3-13,67.5,53.2,33.9,32.5,27.5,22.6,72,40,22,30.36,30.09,7,2,20,0.00
2014-3-14,71.6,58.1,45.6,53.4,45.8,32.3,83,65,44,30.11,29.97,10,4,19,0.00
2014-3-15,66.0,59.6,53.4,61.8,56.5,52.2,97,90,77,30.00,29.69,7,2,14,1.15
2014-3-16,54.9,47.0,40.7,52.8,41.4,32.7,97,81,71,30.10,29.76,16,8,27,0.01
2014-3-17,60.8,47.7,35.9,36.4,29.0,21.6,77,52,23,30.09,29.76,10,3,27,0.00
2014-3-18,77.0,55.9,47.0,47.0,39.3,33.9,70,55,33,29.76,29.62,14,8,26,0.00
2014-3-19,64.2,56.8,45.9,37.8,35.4,32.5,61,45,35,30.24,30.15,9,4,26,0.00
2014-3-20,72.0,56.3,38.2,39.0,34.1,29.3,80,47,21,30.26,30.03,5,2,13,0.00
2014-3-21,79.2,64.3,50.6,59.2,49.2,32.8,78,59,43,30.04,29.81,11,4,24,0.00
2014-3-22,65.5,59.4,51.0,58.6,50.5,43.7,91,73,54,30.12,29.92,8,4,17,0.00
2014-3-23,57.7,50.9,45.5,49.3,35.2,28.0,89,56,42,30.39,30.11,11,6,21,0.00
2014-3-24,64.9,52.0,38.0,39.0,33.4,28.1,78,51,34,30.29,30.06,5,2,13,0.00
2014-3-25,62.1,51.6,40.3,39.1,30.4,24.9,73,47,25,30.43,30.18,8,4,17,0.00
2014-3-26,59.9,52.2,45.5,49.3,37.8,29.9,69,58,46,30.25,29.96,10,5,21,0.01
2014-3-27,78.5,69.8,59.1,66.1,63.6,57.1,97,81,63,29.85,29.67,10,5,19,0.07
2014-3-28,79.9,68.9,61.9,67.4,64.4,55.3,97,86,60,29.86,29.74,8,3,18,0.30
2014-3-29,73.0,65.1,50.0,44.7,37.4,30.3,74,38,22,30.31,30.20,8,3,16,0.00
2014-3-30,75.2,63.3,49.6,47.8,41.6,36.7,65,47,30,30.24,29.99,9,4,18,0.00
2014-3-31,79.2,66.6,55.2,59.1,54.3,46.1,83,66,49,30.00,29.84,10,6,21,0.00
2014-4-1,81.3,70.8,63.2,65.1,62.2,58.3,90,75,54,30.00,29.84,8,4,18,0.00
2014-4-2,81.1,73.0,68.8,70.5,67.3,65.0,92,83,65,29.87,29.69,10,4,17,0.00
2014-4-3,81.9,75.1,67.0,69.1,67.1,49.8,87,77,57,29.83,29.60,14,6,28,0.00
2014-4-4,66.1,55.8,45.5,48.8,36.0,28.8,68,49,26,30.21,29.83,14,6,26,0.00
2014-4-5,55.2,51.5,48.6,45.5,39.2,32.0,83,63,49,30.18,29.98,7,2,15,0.07
2014-4-6,50.4,48.2,45.5,48.6,45.6,42.6,96,91,76,30.01,29.78,7,3,14,1.05
2014-4-7,66.3,54.4,46.6,50.1,48.2,45.8,97,81,51,30.02,29.82,12,2,25,0.05
2014-4-8,69.7,58.6,49.9,48.0,39.5,31.7,83,53,26,30.18,30.00,13,5,23,0.00
2014-4-9,78.6,66.3,46.1,48.7,43.7,35.9,78,46,29,30.26,30.03,7,3,23,0.00
2014-4-10,82.8,70.5,58.5,56.6,53.5,47.2,81,57,37,30.03,29.85,12,6,22,0.00
2014-4-11,80.5,70.2,62.7,63.7,59.5,52.2,84,70,55,30.04,29.90,7,5,22,0.00
2014-4-12,82.0,76.5,68.8,63.6,62.1,60.8,77,61,51,29.95,29.76,11,7,23,0.00
2014-4-13,76.5,69.6,65.2,69.0,64.7,59.6,95,85,69,29.82,29.58,10,5,22,0.42
2014-4-14,71.0,49.9,44.0,68.3,39.7,30.5,93,69,51,30.28,29.68,14,8,25,0.00
2014-4-15,62.5,50.2,35.4,37.1,27.7,18.6,74,45,21,30.36,30.15,5,2,21,0.00
2014-4-16,66.0,54.7,43.1,45.6,38.5,33.7,78,56,35,30.17,29.97,9,4,18,0.00
2014-4-17,66.3,58.1,50.2,54.9,50.0,41.3,88,75,59,30.23,30.05,3,2,18,0.01
2014-4-18,76.3,64.4,55.1,54.7,50.3,44.6,92,64,33,30.26,30.12,4,1,20,0.01
2014-4-19,78.0,66.8,54.5,58.8,53.8,49.1,91,65,44,30.22,30.08,5,2,11,0.00
2014-4-20,78.8,67.6,61.0,61.1,57.2,51.5,95,71,44,30.15,30.04,6,2,11,0.26
2014-4-21,80.2,68.7,61.2,69.4,63.4,59.2,96,84,63,30.11,29.90,5,2,12,0.10
2014-4-22,83.3,70.5,59.9,64.5,59.1,52.8,98,71,36,30.08,29.92,6,1,10,0.01
2014-4-23,84.5,72.0,57.2,65.1,61.0,55.2,95,70,47,29.95,29.73,7,2,15,0.00
2014-4-24,82.7,73.3,65.4,66.3,57.6,45.9,88,62,32,29.95,29.75,8,4,21,0.00
2014-4-25,81.2,68.9,54.9,48.9,43.9,33.5,66,43,24,30.07,29.89,6,2,14,0.00
2014-4-26,81.8,71.5,60.1,69.2,60.9,44.6,87,70,47,29.90,29.64,8,4,21,0.00
2014-4-27,87.5,76.7,71.2,72.7,68.5,47.7,91,77,37,29.65,29.39,8,4,19,0.03
2014-4-28,83.0,73.9,65.7,48.2,41.0,31.7,46,31,20,29.69,29.49,6,2,13,0.00
2014-4-29,75.1,65.0,56.4,48.4,40.0,35.0,58,41,24,29.97,29.64,10,4,21,0.00
2014-4-30,67.1,57.2,50.1,40.1,36.2,29.2,67,47,27,30.18,29.96,11,4,21,0.00
2014-5-1,72.8,59.6,42.7,41.8,34.9,28.8,80,45,22,30.19,30.03,8,2,17,0.00
2014-5-2,80.8,65.7,48.4,44.5,37.3,28.6,72,40,16,30.07,29.91,7,2,13,0.00
2014-5-3,86.5,73.7,52.6,52.7,45.5,35.7,74,41,18,30.02,29.97,4,2,12,0.00
2014-5-4,91.3,75.9,59.5,51.9,46.8,42.3,62,38,20,30.04,29.90,7,3,17,0.00
2014-5-5,87.3,74.6,60.4,61.0,54.4,42.9,76,51,35,29.94,29.76,9,5,23,0.00
2014-5-6,85.5,75.0,63.2,65.9,61.6,56.8,88,64,49,29.82,29.68,9,5,23,0.00
2014-5-7,81.5,74.3,68.2,68.0,64.8,61.7,84,73,60,29.84,29.75,8,5,20,0.00
2014-5-8,73.6,69.8,62.9,71.0,67.1,62.0,98,91,78,29.91,29.74,12,2,24,3.10
2014-5-9,87.0,75.8,63.3,72.9,67.0,59.5,98,77,41,29.92,29.79,6,2,12,0.00
2014-5-10,85.0,75.0,65.1,71.0,65.8,61.0,89,74,52,29.92,29.77,7,4,16,0.00
2014-5-11,85.4,77.6,70.9,72.3,69.7,67.7,92,77,61,29.84,29.69,9,5,24,0.00
2014-5-12,80.7,72.4,58.7,74.1,68.7,56.8,97,88,70,29.98,29.72,9,4,21,1.40
2014-5-13,66.7,60.9,54.9,53.1,50.1,47.1,79,68,57,30.25,30.13,8,5,20,0.00
2014-5-14,70.5,60.2,53.3,53.8,47.4,38.2,94,66,33,30.30,30.18,9,4,18,0.33
2014-5-15,82.4,65.8,49.8,49.2,44.2,33.6,88,53,19,30.26,30.07,6,2,16,0.00
2014-5-16,83.2,69.2,55.0,58.4,52.3,46.1,86,57,32,30.15,29.88,6,3,16,0.00
2014-5-17,82.6,71.3,58.1,63.0,55.7,47.3,77,59,45,30.03,29.88,6,3,16,0.00
2014-5-18,81.7,72.4,62.6,63.3,61.2,57.5,91,69,49,30.10,29.98,6,3,14,0.00
2014-5-19,84.0,74.1,63.8,64.8,62.3,60.1,90,68,50,30.06,29.91,9,5,22,0.00
2014-5-20,85.7,76.7,67.8,66.2,64.3,61.5,88,67,48,30.04,29.94,9,5,19,0.00
2014-5-21,85.8,76.6,68.6,66.9,64.9,63.4,87,68,50,30.08,29.96,7,4,19,0.00
2014-5-22,85.0,76.0,66.7,68.3,66.0,64.3,93,72,54,30.12,29.98,6,3,16,0.00
2014-5-23,80.7,74.8,68.8,69.0,67.0,65.3,89,77,64,30.10,29.99,5,2,10,0.00
2014-5-24,83.7,79.2,73.7,69.7,67.6,66.2,79,68,58,30.07,29.95,5,3,12,0.00
2014-5-25,84.9,76.9,71.5,70.0,68.1,65.7,88,75,54,30.02,29.91,8,3,15,0.00
2014-5-26,78.6,73.9,68.6,70.8,67.9,64.2,91,82,70,30.06,29.93,5,2,12,0.03
2014-5-27,78.3,70.4,65.0,68.2,65.0,63.0,96,84,61,29.99,29.85,4,2,8,0.09
2014-5-28,83.8,73.8,65.4,67.5,64.5,60.1,97,75,47,29.94,29.85,6,2,11,0.00
2014-5-29,88.0,77.1,66.6,68.1,66.0,64.3,95,71,49,29.91,29.79,5,2,11,0.00
2014-5-30,86.3,79.7,72.7,70.3,68.6,65.6,90,70,53,29.90,29.81,6,2,11,0.00
2014-5-31,86.9,75.9,69.7,73.6,70.4,67.9,95,84,59,29.97,29.87,5,1,10,0.02
2014-6-1,90.5,79.4,70.4,73.9,70.4,68.0,95,76,51,29.98,29.83,5,2,13,0.00
2014-6-2,90.6,80.8,73.5,72.2,70.8,67.9,91,73,49,30.03,29.86,6,3,17,0.00
2014-6-3,89.3,81.5,73.5,73.9,71.5,69.8,93,73,54,30.03,29.88,5,3,12,0.00
2014-6-4,90.4,82.0,74.6,73.3,71.5,69.7,91,72,53,29.89,29.77,7,4,18,0.00
2014-6-5,88.3,82.7,73.2,73.5,72.2,70.2,91,71,60,29.86,29.77,6,4,18,0.00
2014-6-6,90.9,81.6,73.6,73.4,71.5,68.8,92,73,51,29.97,29.79,6,3,16,0.00
2014-6-7,94.2,84.4,74.6,72.6,70.5,68.2,87,65,45,29.94,29.82,7,3,14,0.00
2014-6-8,88.5,80.3,73.0,74.1,71.0,67.2,94,74,56,29.99,29.77,8,3,14,0.45
2014-6-9,77.0,70.9,63.3,74.3,66.8,61.7,96,87,66,29.86,29.73,7,2,20,0.90
2014-6-10,84.9,75.1,65.3,64.0,60.5,57.6,81,62,45,29.86,29.75,7,3,14,0.00
2014-6-11,91.5,78.8,62.7,69.7,65.0,60.3,94,65,43,29.91,29.75,4,2,14,0.00
2014-6-12,86.6,77.4,71.1,72.0,69.9,67.4,92,78,58,29.98,29.73,9,2,17,0.06
2014-6-13,89.2,80.1,72.4,72.3,69.9,66.9,92,72,54,30.01,29.88,4,2,9,0.00
2014-6-14,89.5,81.2,72.5,74.7,71.7,68.8,91,74,55,29.93,29.79,7,4,15,0.00
2014-6-15,90.8,82.8,75.2,73.3,71.6,69.3,87,70,51,29.93,29.79,7,4,17,0.00
2014-6-16,92.7,83.2,75.5,74.1,72.5,70.7,91,72,51,30.02,29.90,7,4,19,0.00
2014-6-17,93.1,83.4,75.6,75.8,72.9,70.6,89,72,50,30.01,29.88,8,4,16,0.00
2014-6-18,93.8,81.0,73.5,75.1,72.4,70.4,92,77,48,29.99,29.89,10,4,17,0.39
2014-6-19,92.9,83.9,73.9,74.3,72.2,69.5,92,70,48,30.05,29.95,6,3,17,0.00
2014-6-20,93.4,83.3,74.6,73.6,70.4,65.4,89,67,42,30.09,29.98,5,2,11,0.00
2014-6-21,88.8,81.5,75.4,73.4,71.3,67.9,87,72,54,30.04,29.90,4,1,9,0.00
2014-6-22,79.2,74.9,70.1,73.2,71.1,67.5,95,88,79,29.98,29.83,4,2,11,0.34
2014-6-23,88.5,77.2,67.4,72.5,69.5,65.3,96,79,53,29.97,29.82,11,2,25,0.26
2014-6-24,93.8,78.3,70.5,75.6,69.8,65.2,94,77,48,30.05,29.93,6,1,13,0.02
2014-6-25,82.6,74.1,70.2,75.4,71.0,67.5,94,90,77,30.07,29.95,6,2,13,0.08
2014-6-26,89.6,78.5,71.4,74.3,71.5,69.7,96,81,53,30.04,29.86,6,3,13,0.00
2014-6-27,90.2,80.0,72.9,75.4,72.4,69.7,92,79,56,29.92,29.78,7,4,22,0.00
2014-6-28,89.4,81.7,75.9,76.8,74.1,72.0,93,79,60,29.92,29.83,7,4,22,0.02
2014-6-29,93.0,85.0,79.1,76.7,74.1,72.2,90,71,53,30.02,29.90,8,4,17,0.00
2014-6-30,94.6,84.6,76.7,73.8,71.6,67.4,87,67,42,29.98,29.83,8,5,18,0.00
2014-7-1,93.5,83.7,72.8,73.3,71.7,68.4,91,69,46,29.99,29.83,6,3,16,0.00
2014-7-2,95.6,83.8,76.3,73.1,70.6,60.3,88,66,32,30.09,29.93,7,2,13,0.00
2014-7-3,85.8,77.6,67.5,70.7,67.8,65.1,93,73,55,30.19,30.06,12,2,21,0.27
2014-7-4,91.2,81.1,72.8,75.2,71.1,67.7,91,73,52,30.22,30.12,5,2,11,0.05
2014-7-5,91.3,81.6,73.6,73.3,70.8,67.7,88,71,51,30.19,30.05,5,2,10,0.00
2014-7-6,94.1,82.7,71.4,73.4,70.1,65.3,93,68,40,30.07,29.94,5,2,13,0.00
2014-7-7,97.0,84.9,73.4,73.0,70.2,66.5,92,65,39,30.00,29.89,6,3,15,0.00
2014-7-8,97.5,90.3,78.7,73.8,70.3,66.2,78,53,39,30.01,29.92,5,3,11,0.00
2014-7-9,97.2,86.0,75.1,71.6,68.6,64.3,77,58,38,30.06,29.91,4,2,10,0.00
2014-7-10,96.9,86.2,75.1,71.8,67.3,62.3,79,55,33,30.04,29.92,5,2,13,0.00
2014-7-11,96.3,85.3,73.6,71.3,66.7,61.1,76,56,34,30.12,30.02,6,3,13,0.00
2014-7-12,97.7,86.5,73.8,71.0,67.3,57.6,85,56,33,30.16,30.02,5,2,12,0.00
2014-7-13,101.3,88.4,75.4,72.4,69.1,64.9,80,56,32,30.09,29.94,5,2,12,0.00
2014-7-14,101.3,85.1,76.8,74.6,70.3,66.5,81,63,34,30.00,29.89,8,2,13,0.02
2014-7-15,91.0,78.9,73.9,71.5,65.0,52.1,88,65,33,30.06,29.94,6,2,13,0.00
2014-7-16,91.5,79.0,66.9,69.2,62.7,54.4,72,58,43,30.04,29.86,5,2,10,0.00
2014-7-17,79.6,70.9,65.6,71.9,67.3,64.6,97,89,66,29.98,29.88,6,3,13,2.02
2014-7-18,74.0,68.0,63.7,66.1,63.9,61.6,97,87,74,30.04,29.95,5,2,12,0.00
2014-7-19,76.6,70.9,65.9,67.1,65.3,63.8,95,83,68,30.06,29.99,2,1,8,0.01
2014-7-20,90.1,77.1,65.7,74.5,69.5,64.5,97,79,59,30.07,29.93,5,2,10,0.00
2014-7-21,96.0,82.5,72.2,78.5,72.9,69.6,92,75,45,30.06,29.95,4,2,10,0.00
2014-7-22,95.0,84.7,75.4,77.2,73.2,68.1,90,70,48,30.08,30.00,4,2,9,0.00
2014-7-23,94.8,82.8,72.1,73.4,70.6,67.6,92,69,47,30.11,29.98,9,1,13,0.00
2014-7-24,93.5,81.6,70.6,73.0,69.7,66.5,93,70,42,30.08,29.93,4,2,10,0.00
2014-7-25,98.3,85.6,73.0,75.1,72.2,68.6,95,68,39,30.01,29.88,5,2,9,0.00
2014-7-26,99.2,87.5,75.4,74.1,71.7,67.3,87,62,36,30.00,29.88,5,3,11,0.00
2014-7-27,101.5,88.9,77.8,73.4,71.2,67.3,82,59,35,30.03,29.93,4,2,11,0.00
2014-7-28,93.6,85.0,78.1,76.5,70.0,61.7,81,62,40,30.12,29.99,11,3,17,0.00
2014-7-29,87.6,79.6,70.2,67.8,65.0,62.6,79,62,45,30.14,30.04,3,1,17,0.00
2014-7-30,88.0,79.3,73.2,74.7,70.9,67.1,94,76,61,30.08,29.90,5,2,14,0.24
2014-7-31,83.2,74.3,68.7,76.6,70.3,66.0,97,88,70,30.03,29.91,8,4,14,2.41
2014-8-1,77.2,71.9,68.2,69.2,67.7,66.3,96,87,74,30.07,29.99,5,2,13,0.02
2014-8-2,86.7,75.7,66.7,70.7,68.1,65.5,97,79,55,30.11,30.01,4,1,9,0.00
2014-8-3,90.2,80.1,70.5,71.5,69.4,67.3,93,72,49,30.10,29.98,6,2,13,0.00
2014-8-4,83.7,76.7,71.9,73.4,70.4,67.8,92,81,63,30.08,30.00,2,1,9,0.00
2014-8-5,94.1,83.5,71.1,75.5,71.9,68.2,94,70,47,30.08,29.96,5,2,7,0.00
2014-8-6,96.1,86.3,76.5,74.5,72.1,67.7,88,65,42,30.03,29.88,5,2,13,0.00
2014-8-7,97.5,86.5,76.6,76.7,73.4,70.7,85,67,43,29.94,29.77,4,2,10,0.00
2014-8-8,101.5,88.5,79.5,75.3,72.4,68.7,81,61,36,29.93,29.81,7,3,12,0.00
2014-8-9,100.5,88.3,77.5,75.2,71.9,66.4,85,61,35,29.98,29.85,4,2,11,0.00
2014-8-10,99.5,86.8,76.4,74.5,70.9,67.1,86,62,38,30.02,29.89,5,1,10,0.00
2014-8-11,94.9,85.6,78.5,72.0,69.1,61.1,77,59,35,30.05,29.95,7,2,13,0.00
2014-8-12,91.7,82.5,72.8,70.6,63.3,54.7,81,55,30,30.08,29.98,9,3,17,0.00
2014-8-13,91.9,79.9,67.4,64.0,61.0,57.9,78,55,33,30.11,29.98,5,1,17,0.00
2014-8-14,92.6,81.7,68.9,66.6,64.0,60.1,84,57,38,30.08,29.95,4,2,10,0.00
2014-8-15,96.8,84.4,71.8,72.7,68.0,64.1,77,60,39,30.01,29.84,5,3,9,0.00
2014-8-16,102.2,83.1,76.6,75.6,72.4,65.3,94,73,32,29.93,29.84,9,2,23,0.82
2014-8-17,81.2,76.2,72.2,74.9,72.4,69.9,96,88,78,30.02,29.89,4,1,7,0.63
2014-8-18,92.0,81.8,72.6,77.7,74.2,71.0,95,79,56,29.97,29.84,5,1,12,0.00
2014-8-19,94.9,84.7,76.2,76.2,71.2,65.7,85,66,41,29.93,29.82,8,2,13,0.00
2014-8-20,97.3,85.4,77.4,75.5,71.8,67.4,87,66,39,29.97,29.87,6,3,14,0.00
2014-8-21,98.4,87.0,76.8,76.7,71.2,62.9,91,63,32,30.03,29.92,7,4,15,0.00
2014-8-22,100.3,88.5,78.1,74.9,69.5,59.3,86,57,29,30.04,29.91,5,3,15,0.00
2014-8-23,99.2,87.8,76.2,72.6,68.6,59.5,84,56,29,30.00,29.86,5,2,11,0.00
2014-8-24,98.9,87.2,75.6,72.0,69.6,63.8,81,58,35,29.95,29.83,4,2,9,0.00
2014-8-25,99.7,88.2,75.7,73.8,70.0,64.7,83,57,34,29.98,29.86,4,2,9,0.00
2014-8-26,97.0,87.3,77.6,74.5,71.8,67.2,83,62,41,30.03,29.92,6,2,11,0.00
2014-8-27,94.0,85.3,75.0,72.9,69.1,63.6,88,60,41,30.06,29.94,5,2,11,0.00
2014-8-28,95.2,82.7,73.8,72.1,68.4,63.1,77,63,39,29.98,29.84,5,2,11,0.00
2014-8-29,93.4,80.0,73.1,75.1,70.9,64.9,94,75,48,29.92,29.82,6,2,17,0.46
2014-8-30,92.3,82.0,72.6,75.5,72.1,70.0,95,74,51,29.97,29.85,4,2,17,0.00
2014-8-31,92.9,83.6,74.3,75.0,72.6,69.8,92,71,49,29.98,29.85,6,3,14,0.00
2014-9-1,94.3,84.7,76.1,74.5,72.1,69.7,87,68,48,29.92,29.83,7,4,15,0.00
2014-9-2,96.2,86.0,77.0,75.1,72.7,68.5,88,66,43,30.00,29.86,5,3,13,0.00
2014-9-3,96.1,85.2,75.0,75.1,72.1,68.3,93,68,42,30.00,29.89,6,3,16,0.00
2014-9-4,97.0,85.9,75.0,74.8,71.3,68.1,88,64,42,30.04,29.93,6,3,16,0.00
2014-9-5,95.6,85.3,74.0,75.4,70.2,65.2,89,63,38,30.09,29.95,5,2,13,0.00
2014-9-6,96.7,82.4,74.0,74.6,70.6,67.1,88,70,40,30.08,29.94,7,1,14,0.04
2014-9-7,85.6,77.1,70.8,72.6,69.3,66.4,87,78,62,30.10,29.97,4,2,14,0.00
2014-9-8,94.0,82.2,71.6,74.7,71.5,68.8,94,72,47,30.05,29.90,4,1,7,0.00
2014-9-9,98.2,85.9,74.7,73.6,70.6,66.4,87,63,37,29.97,29.78,6,3,12,0.00
2014-9-10,99.1,87.6,77.4,74.1,71.0,68.2,79,60,39,29.82,29.72,7,4,18,0.00
2014-9-11,86.1,80.8,71.2,74.9,72.0,67.8,89,75,60,30.01,29.81,6,3,18,0.00
2014-9-12,73.1,67.8,60.2,71.9,64.8,55.7,96,90,85,30.23,29.99,9,5,17,0.04
2014-9-13,68.8,62.3,56.1,59.5,56.1,52.8,90,81,69,30.30,30.20,9,4,16,0.00
2014-9-14,80.4,69.6,61.9,66.0,62.3,58.6,94,79,60,30.26,30.12,3,1,7,0.00
2014-9-15,85.6,77.2,69.6,71.7,68.7,65.2,90,76,58,30.16,30.07,3,1,6,0.00
2014-9-16,90.7,81.5,73.7,73.5,70.7,67.9,91,72,48,30.12,29.95,3,1,6,0.00
2014-9-17,93.2,82.0,72.9,73.7,71.7,70.0,93,73,47,30.00,29.83,5,1,8,0.00
2014-9-18,86.0,78.5,72.2,76.3,71.8,65.9,95,81,65,29.93,29.83,5,1,9,0.40
2014-9-19,88.9,77.7,69.0,72.1,69.5,65.9,96,78,52,29.98,29.88,5,2,9,0.00
2014-9-20,92.8,81.3,72.4,73.7,67.8,59.2,93,67,35,30.02,29.92,4,2,11,0.00
2014-9-21,94.4,81.5,68.2,70.9,66.1,62.1,90,63,37,30.10,29.98,4,1,8,0.00
2014-9-22,86.9,77.4,69.8,70.3,57.7,49.2,80,53,28,30.20,30.09,5,2,12,0.00
2014-9-23,84.7,72.7,62.4,56.3,53.3,44.7,76,53,28,30.21,30.07,4,2,12,0.00
2014-9-24,87.4,73.8,60.1,56.9,51.7,44.6,78,50,24,30.20,30.09,4,2,9,0.00
2014-9-25,87.4,74.3,60.7,61.4,57.4,53.5,85,58,34,30.20,30.08,4,1,8,0.00
2014-9-26,88.0,74.7,61.2,66.5,59.0,53.3,91,61,33,30.15,30.02,3,1,7,0.00
2014-9-27,87.0,76.2,66.5,65.3,61.6,58.1,83,63,40,30.10,29.97,4,1,8,0.00
2014-9-28,87.8,76.0,66.2,66.8,62.8,59.9,89,66,42,30.08,29.97,4,1,8,0.00
2014-9-29,88.0,76.0,65.2,66.8,63.6,59.7,88,67,45,30.03,29.90,4,1,12,0.00
2014-9-30,90.4,78.7,66.7,71.2,67.3,63.4,91,70,47,29.91,29.74,5,1,10,0.00
2014-10-1,91.2,81.0,72.0,71.8,70.1,68.3,92,71,50,29.83,29.72,6,3,13,0.00
2014-10-2,92.9,78.7,66.9,74.6,70.0,57.8,96,76,49,29.93,29.64,15,4,25,0.47
2014-10-3,80.5,70.9,56.8,55.0,50.8,44.5,88,51,34,30.24,30.07,10,4,18,0.00
2014-10-4,78.5,63.3,44.8,46.6,40.4,32.6,87,48,22,30.25,29.98,4,1,18,0.00
2014-10-5,84.9,70.7,56.8,63.9,56.3,43.5,83,61,46,29.98,29.80,6,3,15,0.00
2014-10-6,83.1,72.9,61.9,69.4,64.4,59.1,95,76,58,29.93,29.81,7,3,16,2.40
2014-10-7,94.7,79.4,67.2,73.4,67.7,63.2,91,70,43,29.93,29.83,13,3,13,0.00
2014-10-8,86.3,80.3,72.7,72.5,70.4,67.8,90,73,58,30.03,29.93,9,3,13,0.00
2014-10-9,88.9,79.6,73.4,73.3,71.0,67.9,92,76,52,30.00,29.84,15,3,15,0.00
2014-10-10,92.0,80.8,64.0,71.4,67.8,61.4,93,67,43,29.94,29.80,12,3,22,0.34
2014-10-11,65.3,60.5,57.9,64.0,57.0,52.3,96,88,79,30.10,29.88,7,3,12,0.64
2014-10-12,72.0,62.6,51.9,70.4,57.9,50.4,96,85,66,30.06,29.65,6,2,14,0.02
2014-10-13,74.7,63.1,59.4,71.2,56.9,48.1,97,81,59,29.96,29.57,11,4,26,1.87
2014-10-14,75.3,62.9,54.0,48.8,43.9,39.2,72,53,28,30.12,29.95,12,3,26,0.00
2014-10-15,81.4,64.0,48.2,56.3,49.1,44.3,94,64,30,30.12,29.98,3,0,21,0.00
2014-10-16,88.0,69.8,54.4,55.2,51.7,46.9,91,58,26,29.98,29.81,6,2,14,0.00
2014-10-17,85.8,71.4,59.4,60.8,56.7,51.9,87,62,39,29.98,29.82,4,1,14,0.00
2014-10-18,79.9,68.9,60.3,61.6,57.1,52.2,83,67,49,30.13,29.98,4,2,9,0.00
2014-10-19,76.0,65.5,58.1,58.6,55.0,52.6,86,70,52,30.19,30.06,5,2,9,0.00
2014-10-20,81.9,67.9,54.7,63.9,58.4,51.8,93,73,52,30.12,30.01,3,1,7,0.00
2014-10-21,81.5,69.0,56.5,62.8,59.5,54.6,95,74,49,30.13,30.02,3,1,6,0.00
2014-10-22,81.3,69.7,59.3,65.2,59.9,55.1,97,73,49,30.17,30.06,4,1,7,0.00
2014-10-23,76.1,68.0,61.6,59.5,57.0,54.4,84,69,52,30.18,30.07,3,1,8,0.00
2014-10-24,83.5,69.6,59.9,63.6,59.1,54.7,90,71,49,30.19,30.06,4,1,8,0.00
2014-10-25,89.5,73.5,61.1,65.1,61.6,58.1,90,69,40,30.16,30.04,4,1,9,0.00
2014-10-26,86.6,73.4,62.0,64.8,60.4,56.7,92,67,40,30.04,29.86,6,2,16,0.00
2014-10-27,83.1,72.9,64.5,64.5,60.4,56.3,90,67,44,29.89,29.78,8,4,22,0.00
2014-10-28,75.8,71.1,65.9,65.4,62.2,52.1,90,74,61,30.13,29.83,7,2,22,0.00
2014-10-29,75.9,64.5,54.4,55.3,49.1,43.1,83,60,33,30.24,30.13,5,2,10,0.00
2014-10-30,78.7,63.2,50.7,61.3,52.6,46.1,93,70,40,30.19,30.07,4,1,9,0.01
2014-10-31,65.3,58.7,48.2,55.0,42.5,35.0,75,56,41,30.40,30.17,10,4,17,0.00
2014-11-1,60.5,48.9,37.0,35.9,32.1,27.6,80,54,31,30.50,30.32,5,2,12,0.00
2014-11-2,65.2,54.5,44.8,48.0,40.6,33.6,71,60,47,30.40,30.21,6,3,13,0.00
2014-11-3,75.3,64.3,54.1,61.6,55.3,45.5,88,74,57,30.23,30.09,7,4,15,0.00
2014-11-4,67.6,60.1,52.4,63.0,57.8,50.7,96,92,81,30.25,30.07,10,3,18,0.95
2014-11-5,57.3,54.2,50.6,55.8,52.9,49.2,97,95,94,30.28,30.17,5,2,9,0.20
2014-11-6,70.3,56.7,44.4,52.0,44.8,38.1,97,68,36,30.36,30.26,7,2,12,0.01
2014-11-7,67.3,53.4,38.7,46.0,39.9,35.4,90,63,37,30.33,30.05,4,1,9,0.00
2014-11-8,68.9,55.8,45.0,48.2,40.5,31.6,92,61,26,30.19,30.03,12,3,23,0.00
2014-11-9,71.5,54.9,37.1,45.5,40.8,34.7,94,63,36,30.19,29.87,5,2,13,0.00
2014-11-10,77.3,62.7,47.8,58.2,49.5,43.0,84,64,43,29.87,29.63,10,4,23,0.00
2014-11-11,65.3,45.6,38.0,59.1,32.1,23.7,85,60,47,30.29,29.68,12,7,21,0.00
2014-11-12,39.2,35.0,30.7,23.8,19.4,13.5,60,53,44,30.54,30.28,10,7,21,0.00
2014-11-13,37.7,32.7,29.5,16.8,11.4,8.7,53,41,32,30.66,30.52,8,5,18,0.00
2014-11-14,39.7,34.0,25.6,22.5,18.1,13.5,66,53,39,30.54,30.35,2,1,13,0.00
2014-11-15,44.2,40.7,38.3,39.2,31.1,21.6,95,70,51,30.35,30.09,6,3,13,0.02
2014-11-16,40.0,36.8,28.3,38.9,34.1,23.8,96,90,77,30.31,30.02,9,4,18,0.03
2014-11-17,44.1,32.7,25.4,23.7,20.0,15.4,83,62,33,30.50,30.30,8,3,16,0.00
2014-11-18,56.7,39.4,23.8,24.9,21.2,18.7,84,53,24,30.55,30.34,5,2,14,0.00
2014-11-19,64.9,47.4,34.8,40.4,31.9,21.9,88,56,37,30.35,30.15,6,2,14,0.00
2014-11-20,72.0,55.9,40.5,58.1,48.5,38.1,95,79,46,30.17,30.00,7,2,13,0.00
2014-11-21,64.9,61.3,57.9,61.6,58.9,56.3,96,92,88,30.15,30.06,5,2,11,0.01
2014-11-22,64.2,60.2,57.6,59.7,57.7,56.0,97,91,82,30.12,29.69,7,3,13,0.49
2014-11-23,77.5,61.3,49.1,59.0,50.0,37.1,98,72,25,29.83,29.38,11,4,26,0.00
2014-11-24,60.3,49.3,38.9,38.5,32.6,23.0,77,55,25,30.19,29.83,7,1,26,0.00
2014-11-25,62.9,48.2,36.1,34.9,30.6,26.0,81,54,25,30.34,30.13,7,1,11,0.00
2014-11-26,65.2,51.3,37.7,36.7,32.8,29.5,76,51,33,30.43,30.06,7,2,13,0.00
2014-11-27,59.9,47.0,37.9,37.0,28.2,22.6,80,51,24,30.58,30.39,5,1,12,0.00
2014-11-28,69.4,54.5,38.9,52.2,43.1,29.5,81,66,52,30.39,30.00,9,4,23,0.00
2014-11-29,77.3,63.9,52.7,60.2,53.6,47.6,90,71,44,30.01,29.86,12,6,23,0.00
2014-11-30,79.0,70.0,64.4,62.6,60.5,58.8,89,73,52,30.11,29.91,12,6,26,0.00
2014-12-1,65.2,40.6,32.9,61.6,28.8,20.9,89,63,47,30.51,30.11,11,7,22,0.00
2014-12-2,48.8,39.3,31.5,40.2,26.8,20.3,76,61,44,30.50,30.19,6,2,11,0.00
2014-12-3,57.2,52.9,47.7,54.1,49.3,40.2,94,87,75,30.25,30.16,4,2,8,0.01
2014-12-4,65.5,59.2,54.9,59.5,56.1,53.0,94,90,81,30.22,30.06,4,1,10,0.00
2014-12-5,76.3,67.0,57.4,65.0,61.1,53.6,97,82,63,30.22,29.98,10,4,17,0.00
2014-12-6,65.2,56.3,45.9,53.5,48.9,43.1,90,77,57,30.44,30.21,8,5,15,0.00
2014-12-7,54.9,49.5,43.6,47.6,45.3,42.0,97,86,73,30.45,30.30,4,2,13,0.00
2014-12-8,60.4,48.8,40.1,47.9,44.3,38.8,96,85,62,30.40,30.31,5,1,9,0.00
2014-12-9,58.5,43.7,35.6,48.0,41.4,34.6,97,92,68,30.38,30.27,0,0,9,0.01
2014-12-10,54.7,48.9,41.7,47.6,44.7,40.9,97,86,75,30.32,30.17,3,1,8,0.01
2014-12-11,64.3,57.2,51.8,58.0,53.1,47.0,97,86,78,30.24,30.14,5,2,8,0.05
2014-12-12,69.8,61.0,56.6,60.8,57.7,55.8,97,89,73,30.28,30.18,5,2,8,0.03
2014-12-13,68.8,60.9,57.9,59.0,56.4,54.1,93,86,69,30.24,30.06,6,2,15,0.00
2014-12-14,65.4,62.8,59.6,63.4,60.7,57.6,96,93,88,30.07,29.80,7,4,16,0.73
2014-12-15,66.2,58.4,50.8,63.8,41.9,32.3,95,56,35,30.19,29.79,10,5,17,0.40
2014-12-16,52.4,45.3,38.8,34.6,31.5,28.2,80,59,48,30.40,30.19,9,4,20,0.00
2014-12-17,45.7,42.1,38.7,40.2,36.9,32.8,96,82,72,30.34,30.10,7,2,12,0.39
2014-12-18,47.2,44.2,40.0,45.3,42.9,39.0,97,95,92,30.22,30.14,4,1,9,0.01
2014-12-19,48.4,46.3,44.8,46.2,44.7,43.3,96,94,91,30.25,30.13,5,3,12,0.04
2014-12-20,47.2,45.9,44.7,45.2,43.6,41.9,96,92,87,30.30,30.21,4,2,8,0.00
2014-12-21,51.7,48.7,46.2,49.2,45.7,44.1,93,89,81,30.22,29.76,7,3,15,0.00
2014-12-22,65.9,57.8,51.8,53.8,48.8,43.6,91,73,48,29.76,29.57,8,4,15,0.00
2014-12-23,53.0,48.7,43.5,45.1,38.9,30.9,94,70,49,29.96,29.67,11,4,18,0.56
2014-12-24,51.4,43.9,36.9,35.0,32.7,30.4,78,65,49,30.09,29.95,11,4,17,0.00
2014-12-25,61.2,45.7,32.9,43.8,33.5,28.4,85,65,31,30.09,29.95,12,3,25,0.00
2014-12-26,61.3,56.6,50.0,59.9,52.7,42.8,95,87,74,30.00,29.89,6,3,13,0.01
2014-12-27,60.8,41.3,35.0,59.9,37.0,28.3,97,85,76,30.35,30.00,11,7,20,0.02
2014-12-28,48.8,38.0,32.2,28.6,26.6,21.2,80,65,35,30.34,30.18,5,2,20,0.00
2014-12-29,52.9,38.8,28.3,39.2,33.0,25.6,94,81,46,30.30,30.10,5,2,13,0.00
2014-12-30,46.7,40.9,33.3,38.1,31.8,28.1,91,71,52,30.59,30.30,7,4,15,0.00
2014-12-31,38.1,34.3,32.3,29.0,26.4,24.8,78,72,68,30.67,30.46,7,4,15,0.00
2015-1-1,36.2,34.1,31.8,35.2,31.6,25.5,96,91,72,30.46,30.24,3,1,11,0.63
2015-1-2,40.9,39.0,36.1,40.0,38.0,35.1,97,96,95,30.27,30.00,5,2,10,0.40